Zurück zum Katalog

GAOFEN 12

AktivWissenschaftSSO
NORAD 44819·PAYLOAD·🇨🇳 China

Gestartet Nov 27, 2019 von Taiyuan Satellite Launch Center

Loading…

Nächste Überflüge (nächste 24 Stunden)

TLE

AktuellSource: Space-Track

Epoche: Sep 14, 2026, 15:09 UTC

1 44819U 19082A   26257.63179674  .00000261  00000-0  40697-4 0  9990
2 44819  97.8148 261.6718 0002460  95.4230 264.7263 14.80518209367320

Verfolge GAOFEN 12 in Echtzeit mit AllMySat

Download on the App Store